Tracking 28799 objects as of 18-Apr-2024
HD Live streaming from Space Station
objects crossing your sky now

FENGYUN 1C DEB

Track FENGYUN 1C DEB now!
10-day predictions


NORAD ID: 36710
Int'l Code: 1999-025EAG
Perigee: 711.1 km
Apogee: 825.7 km
Inclination: 98.4 °
Period: 100.1 minutes
Semi major axis: 7139 km
RCS: 0.0087 m2 (small)
Launch date: May 10, 1999
Source: People's Republic of China (PRC)
Launch site: Taiyaun Space Center, China (TSC)

Note: This is SATELLITE DEBRIS
Your satellite tracking list
Your tracking list is empty




NASA's NSSDC Master Catalog

Two Line Element Set (TLE):
1 36710U 99025EAG 24106.38730535  .00006618  00000-0  20707-2 0  9998
2 36710  98.4339 163.5098 0080291 215.8439 143.7346 14.39157779561967
Source of the keplerian elements: AFSPC